When you browse on this site, cookies collect data to enhance your experience and personalize the content and advertising you see.
Visit our Privacy Policy to learn more. By continuing to use the site, you agree to this use of cookies and data.
  • Em Portugal
  • Lista de países
  • Para 7 dias
  • Temperatura da água
  • Mapas de satélite
  • Mapa do tempo
  • Widgets de tempo
  • user-avatar
    Iniciar Sessão

    Previsão horária em Chrustowice

    Hoje, 17 Janeiro, Quinta-feira

    Tempo Temperatura Precipitação Vento Pressão Humidade
    00:00 -1°C° 0 mm 3 m/s 737 mmHg 87%
    01:00 -1°C° 0 mm 3 m/s 737 mmHg 87%
    02:00 -1°C° 0 mm 3 m/s 737 mmHg 87%
    03:00 -1°C° 0 mm 3 m/s 736 mmHg 86%
    04:00 -1°C° 0 mm 3 m/s 736 mmHg 85%
    05:00 -1°C° 0 mm 3 m/s 735 mmHg 83%
    06:00 -2°C° 0 mm 4 m/s 735 mmHg 81%
    07:00 -1°C° 0 mm 4 m/s 735 mmHg 79%
    08:00 -1°C° 0 mm 4 m/s 735 mmHg 77%
    09:00 0°C° 0 mm 4 m/s 735 mmHg 75%
    10:00 +1°C° 0 mm 4 m/s 735 mmHg 72%
    11:00 +1°C° 0 mm 4 m/s 735 mmHg 74%
    12:00 +3°C° 0 mm 4 m/s 735 mmHg 76%
    13:00 +3°C° 0 mm 4 m/s 735 mmHg 78%
    14:00 +3°C° 0 mm 4 m/s 735 mmHg 80%
    15:00 +1°C° 0 mm 4 m/s 735 mmHg 82%
    16:00 0°C° 0 mm 4 m/s 735 mmHg 84%
    17:00 0°C° 0 mm 4 m/s 735 mmHg 85%
    18:00 +1°C° 0 mm 3 m/s 735 mmHg 86%
    19:00 0°C° 0 mm 3 m/s 735 mmHg 86%
    20:00 0°C° 0.1 mm 3 m/s 735 mmHg 85%
    21:00 0°C° 0.1 mm 3 m/s 735 mmHg 84%
    22:00 +1°C° 0.1 mm 3 m/s 735 mmHg 83%
    23:00 0°C° 0 mm 4 m/s 735 mmHg 83%

    Amanhã, 18 Janeiro, Sexta-feira

    Tempo Temperatura Precipitação Vento Pressão Humidade
    00:00 0°C° 0 mm 4 m/s 735 mmHg 83%
    01:00 0°C° 0 mm 4 m/s 735 mmHg 83%
    02:00 0°C° 0 mm 4 m/s 735 mmHg 84%
    03:00 +1°C° 0 mm 4 m/s 735 mmHg 84%
    04:00 +1°C° 0 mm 5 m/s 735 mmHg 85%
    05:00 0°C° 0.1 mm 5 m/s 735 mmHg 85%
    06:00 0°C° 0.1 mm 5 m/s 736 mmHg 86%
    07:00 0°C° 0.1 mm 5 m/s 736 mmHg 87%
    08:00 0°C° 0 mm 5 m/s 737 mmHg 84%
    09:00 -1°C° 0 mm 6 m/s 737 mmHg 82%
    10:00 -2°C° 0 mm 6 m/s 738 mmHg 79%
    11:00 -2°C° 0 mm 6 m/s 738 mmHg 76%
    12:00 -2°C° 0 mm 7 m/s 738 mmHg 72%
    13:00 -2°C° 0 mm 7 m/s 739 mmHg 68%
    14:00 -2°C° 0 mm 7 m/s 740 mmHg 70%
    15:00 -3°C° 0 mm 6 m/s 740 mmHg 73%
    16:00 -3°C° 0 mm 6 m/s 741 mmHg 75%
    17:00 -2°C° 0 mm 5 m/s 742 mmHg 78%
    18:00 -3°C° 0 mm 4 m/s 743 mmHg 80%
    19:00 -3°C° 0 mm 4 m/s 744 mmHg 83%
    20:00 -3°C° 0 mm 4 m/s 744 mmHg 83%
    21:00 -4°C° 0 mm 3 m/s 745 mmHg 83%
    22:00 -4°C° 0 mm 3 m/s 746 mmHg 83%
    23:00 -4°C° 0 mm 3 m/s 746 mmHg 83%

    Depois de amanhã, 19 Janeiro, Sábado

    Tempo Temperatura Precipitação Vento Pressão Humidade
    00:00 -4°C° 0 mm 3 m/s 746 mmHg 84%
    01:00 -4°C° 0 mm 3 m/s 746 mmHg 85%
    02:00 -4°C° 0 mm 3 m/s 746 mmHg 85%
    03:00 -5°C° 0 mm 3 m/s 746 mmHg 85%
    04:00 -5°C° 0 mm 3 m/s 746 mmHg 85%
    05:00 -4°C° 0 mm 2 m/s 747 mmHg 85%
    06:00 -4°C° 0 mm 2 m/s 747 mmHg 84%
    07:00 -4°C° 0 mm 2 m/s 747 mmHg 84%
    08:00 -3°C° 0 mm 2 m/s 747 mmHg 80%
    09:00 -3°C° 0 mm 2 m/s 748 mmHg 76%
    10:00 -3°C° 0 mm 2 m/s 748 mmHg 72%
    11:00 -2°C° 0 mm 2 m/s 747 mmHg 68%
    12:00 0°C° 0 mm 1 m/s 747 mmHg 64%
    13:00 +1°C° 0 mm 1 m/s 747 mmHg 59%
    14:00 0°C° 0 mm 1 m/s 747 mmHg 63%
    15:00 0°C° 0 mm 1 m/s 746 mmHg 66%
    16:00 -1°C° 0 mm 1 m/s 746 mmHg 69%
    17:00 -1°C° 0 mm 1 m/s 746 mmHg 71%
    18:00 -1°C° 0 mm 1 m/s 746 mmHg 73%
    19:00 -1°C° 0 mm 1 m/s 746 mmHg 75%
    20:00 -4°C° 0 mm 2 m/s 746 mmHg 76%
    21:00 -4°C° 0 mm 2 m/s 746 mmHg 77%
    22:00 -4°C° 0 mm 2 m/s 746 mmHg 77%
    23:00 -4°C° 0 mm 2 m/s 746 mmHg 78%

    20 Janeiro, Domingo

    Tempo Temperatura Precipitação Vento Pressão Humidade
    00:00 -4°C° 0 mm 2 m/s 746 mmHg 79%
    01:00 -4°C° 0 mm 2 m/s 746 mmHg 79%
    02:00 -4°C° 0 mm 2 m/s 745 mmHg 80%
    03:00 -5°C° 0 mm 2 m/s 745 mmHg 80%
    04:00 -5°C° 0 mm 2 m/s 744 mmHg 81%
    05:00 -5°C° 0 mm 2 m/s 744 mmHg 81%
    06:00 -5°C° 0 mm 2 m/s 744 mmHg 82%
    07:00 -5°C° 0 mm 2 m/s 744 mmHg 82%
    08:00 -5°C° 0 mm 2 m/s 744 mmHg 81%
    09:00 -4°C° 0 mm 2 m/s 744 mmHg 79%
    10:00 -2°C° 0 mm 1 m/s 744 mmHg 78%
    11:00 -2°C° 0 mm 1 m/s 744 mmHg 76%
    12:00 -1°C° 0 mm 1 m/s 743 mmHg 74%
    13:00 -1°C° 0 mm 1 m/s 743 mmHg 72%
    14:00 -1°C° 0 mm 1 m/s 743 mmHg 74%
    15:00 -1°C° 0 mm 1 m/s 743 mmHg 76%
    16:00 -1°C° 0 mm 1 m/s 743 mmHg 77%
    17:00 -2°C° 0 mm 1 m/s 744 mmHg 79%
    18:00 -2°C° 0 mm 1 m/s 744 mmHg 81%
    19:00 -2°C° 0 mm 1 m/s 744 mmHg 83%
    20:00 -2°C° 0 mm 1 m/s 745 mmHg 84%
    21:00 -2°C° 0 mm 1 m/s 745 mmHg 84%
    22:00 -3°C° 0 mm 1 m/s 745 mmHg 85%
    23:00 -3°C° 0 mm 1 m/s 745 mmHg 84%

    21 Janeiro, Segunda-feira

    Tempo Temperatura Precipitação Vento Pressão Humidade
    00:00 -3°C° 0 mm 1 m/s 746 mmHg 83%
    01:00 -3°C° 0 mm 1 m/s 746 mmHg 82%
    02:00 -3°C° 0 mm 1 m/s 746 mmHg 81%
    03:00 -3°C° 0 mm 1 m/s 746 mmHg 80%
    04:00 -4°C° 0 mm 1 m/s 746 mmHg 79%
    05:00 -4°C° 0 mm 1 m/s 746 mmHg 80%
    06:00 -4°C° 0 mm 1 m/s 747 mmHg 81%
    07:00 -4°C° 0 mm 1 m/s 747 mmHg 82%
    08:00 -3°C° 0 mm 1 m/s 747 mmHg 79%
    09:00 -5°C° 0 mm 2 m/s 747 mmHg 77%
    10:00 -4°C° 0 mm 2 m/s 748 mmHg 74%
    11:00 -2°C° 0 mm 1 m/s 747 mmHg 71%
    12:00 -1°C° 0 mm 1 m/s 747 mmHg 68%
    13:00 -1°C° 0 mm 1 m/s 747 mmHg 64%
    14:00 -1°C° 0 mm 1 m/s 747 mmHg 67%
    15:00 -2°C° 0 mm 0 m/s 747 mmHg 69%
    16:00 -2°C° 0 mm 0 m/s 747 mmHg 72%
    17:00 -3°C° 0 mm 0 m/s 747 mmHg 73%
    18:00 -2°C° 0 mm 1 m/s 747 mmHg 74%
    19:00 -2°C° 0 mm 1 m/s 748 mmHg 76%
    20:00 -2°C° 0 mm 1 m/s 747 mmHg 77%
    21:00 -5°C° 0 mm 2 m/s 747 mmHg 79%
    22:00 -5°C° 0 mm 2 m/s 747 mmHg 80%
    23:00 -5°C° 0 mm 2 m/s 747 mmHg 81%

    22 Janeiro, Terça-feira

    Tempo Temperatura Precipitação Vento Pressão Humidade
    00:00 -5°C° 0 mm 2 m/s 747 mmHg 82%
    01:00 -6°C° 0 mm 2 m/s 747 mmHg 83%
    02:00 -6°C° 0 mm 2 m/s 746 mmHg 83%
    03:00 -6°C° 0 mm 2 m/s 746 mmHg 83%
    04:00 -7°C° 0 mm 2 m/s 745 mmHg 83%
    05:00 -6°C° 0 mm 1 m/s 745 mmHg 82%
    06:00 -6°C° 0 mm 1 m/s 745 mmHg 80%
    07:00 -6°C° 0 mm 1 m/s 744 mmHg 78%
    08:00 -6°C° 0 mm 1 m/s 744 mmHg 73%
    09:00 -4°C° 0 mm 1 m/s 744 mmHg 68%
    10:00 -4°C° 0 mm 1 m/s 743 mmHg 63%
    11:00 -5°C° 0 mm 2 m/s 743 mmHg 62%
    12:00 -4°C° 0 mm 2 m/s 742 mmHg 61%
    13:00 -3°C° 0 mm 2 m/s 741 mmHg 59%
    14:00 -4°C° 0 mm 2 m/s 741 mmHg 66%
    15:00 -5°C° 0 mm 3 m/s 740 mmHg 72%
    16:00 -5°C° 0 mm 3 m/s 740 mmHg 79%
    17:00 -5°C° 0 mm 3 m/s 739 mmHg 80%
    18:00 -5°C° 0 mm 4 m/s 739 mmHg 82%
    19:00 -7°C° 0 mm 4 m/s 738 mmHg 84%
    20:00 -7°C° 0 mm 4 m/s 738 mmHg 85%
    21:00 -7°C° 0 mm 4 m/s 738 mmHg 85%
    22:00 -8°C° 0 mm 5 m/s 737 mmHg 86%
    23:00 -8°C° 0 mm 5 m/s 737 mmHg 85%
    Mostrar mais